METEOR 2-17 DEB

Satellite information

Favourite Embed

Satellite Type and Status

DEBRISIN ORBIT

Key statistics

Satellite METEOR 2-17 DEB at a glance.

Uptime

13776

Days in orbit

Revolutions

≈ 14.1

Per day

Orbit

LEO

Low Earth Orbit

Inclination

82.5

Latest

Satellite identification and parameters

Extended collection of information and parameters for METEOR 2-17 DEB.

Object identification

Identified? True

Debris? True

Object name: METEOR 2-17 DEB

International designator: 1988-005F

Object number (NORAD): 28991

Object ID (CCSDS): 28991

Country: COMMONWEALTH OF INDEPENDENT STATES (CIS)

Current information (Y/N): Y

RCS size: SMALL

Orbital parameters

Period: 102.251 minutes

Inclination: 82.5238 deg

SMA: 7243.349 km

Apoapsis: 884.625 km

Periapsis: 845.804 km

RAAN: 65.2623 deg

Eccentricy: 0.00267979

Argument of periapsis: 253.9786 deg

Mean anomaly: 137.9402 deg

Mean motion: 14.08294966 rev/day

Mean motion (dot): 0.00003932 rev/day2

B* drag term: 0.0022848825 1/REarth

Two-line elements (TLE)

Creation date: Oct. 15, 2025, 6:23 p.m.

Reference frame: TEME

Reference center: EARTH

Epoch: Oct. 15, 2025, 8:59 a.m. UTC

TLE line 0: 0 METEOR 2-17 DEB

TLE line 1: 1 28991U 88005F 25288.37448554 .00003932 00000-0 22849-2 0 9999

TLE line 2: 2 28991 82.5238 65.2623 0026798 253.9786 137.9402 14.08294966 31475

Live tracking on map

Real-time ground track for satellite METEOR 2-17 DEB.

In-orbit conjunctions

A list of the most updated potential collisions computed for object METEOR 2-17 DEB.

Target Orbit TCA Probability of collision Miss distance Type
COSMOS 2227 LEO 2025-08-20 09:13:16 0.0001586195 210.0 (m) PAYLOAD
CZ-4B R/B SSO 2025-07-24 21:50:23 0.0002966107 60.0 (m) ROCKET BODY
IRIDIUM 33 DEB LEO 2024-09-27 10:48:34 0.0001801157 760.0 (m) DEBRIS

Associated space launch

Second generation soviet meteorological satellite

METEOR 2-17 DEB was lifted into orbit during the mission ‘Tsiklon-3 | Meteor-2 17’, on board a Tsiklon-3 space rocket.

The launch took place on Jan. 30, 1988, 10:59 a.m. from 32/1.

For more information about the launch, click the button.

Launch to space Tsiklon-3 | Meteor-2 17
Tsiklon-3 | Meteor-2 17

Agency: N/A

Status: Launch Successful

Launch date: Jan. 30, 1988, 10:59 a.m. UTC

Rocket: Tsiklon-3

Launch pad: 32/1

Location: Plesetsk Cosmodrome, Russian Federation

...

Latest news about this satellite

There are no fresh news available about this satellite. Check back as we update our databases every day.


Newsletter sign-up

Weekly statistics, charts and insights to help you stay on top of the space industry.